This is the latest recevied weather packets stored in our database for station/object EA1AHA-13. If no packets are shown the sender has not sent any weather packets the latest 10 day(s).
| Time | Temp. | Humidity | Pressure | Rain* | Wind** | Luminosity | Snow |
|---|---|---|---|---|---|---|---|
| 1777713390 | 16.67° C | 88% | 1014.5 hPa | 0 mm | - | - | - |
| 1777712765 | 16.11° C | 88% | 1014.4 hPa | 0 mm | - | - | - |
| 1777712189 | 16.67° C | 85% | 1014.3 hPa | 0 mm | - | - | - |
| 1777711565 | 16.67° C | 83% | 1014 hPa | 0 mm | - | - | - |
| 1777710989 | 17.22° C | 83% | 1014.1 hPa | 0 mm | - | - | - |
| 1777710365 | 16.67° C | 84% | 1014.2 hPa | 0 mm | - | - | - |
| 1777709790 | 16.67° C | 85% | 1013.9 hPa | 0 mm | - | - | - |
| 1777709165 | 16.11° C | 86% | 1013.9 hPa | 0 mm | - | - | - |
| 1777708590 | 16.11° C | 87% | 1014.3 hPa | 0 mm | - | - | - |
| 1777707965 | 16.11° C | 87% | 1014.3 hPa | 0 mm | - | - | - |
| 1777707390 | 16.11° C | 88% | 1014.2 hPa | 0 mm | - | - | - |
| 1777706766 | 15.56° C | 88% | 1014.3 hPa | 0 mm | - | - | - |
| 1777706189 | 15.56° C | 89% | 1013.9 hPa | 0 mm | - | - | - |
| 1777705566 | 15.56° C | 90% | 1014 hPa | 0 mm | - | - | - |
| 1777704990 | 15.56° C | 91% | 1013.9 hPa | 0 mm | - | - | - |
| 1777704366 | 15.56° C | 91% | 1013.9 hPa | 0 mm | - | - | - |
| 1777703789 | 15.56° C | 92% | 1014.1 hPa | 0 mm | - | - | - |
| 1777703166 | 15.56° C | 92% | 1014.2 hPa | 0 mm | - | - | - |
| 1777702589 | 15° C | 93% | 1014.1 hPa | 0 mm | - | - | - |
| 1777701966 | 15° C | 93% | 1014.2 hPa | 0 mm | - | - | - |
| 1777701390 | 15° C | 93% | 1014.1 hPa | 0 mm | - | - | - |
| 1777700813 | 15° C | 93% | 1013.8 hPa | 0 mm | - | - | - |
| 1777700189 | 15° C | 94% | 1013.9 hPa | 0 mm | - | - | - |
| 1777699566 | 15° C | 94% | 1014.1 hPa | 0 mm | - | - | - |
| 1777698989 | 15° C | 95% | 1014.1 hPa | 0 mm | - | - | - |
* Rain latest hour (hover to see other rain measurements)
** Current wind speed in m/s (hover to see current wind gust speed)